Year,Month,Day,Hour,Minute,Value (Times are PST for temperature in C)
2014,03,11,00,00,3.90
2014,03,11,00,01,3.90
2014,03,11,00,02,3.90
2014,03,11,00,03,3.90
2014,03,11,00,04,3.90
2014,03,11,00,05,3.80
2014,03,11,00,06,3.80
2014,03,11,00,07,3.80
2014,03,11,00,08,3.70
2014,03,11,00,09,3.70
2014,03,11,00,10,3.70
2014,03,11,00,11,3.70
2014,03,11,00,12,3.70
2014,03,11,00,13,3.70
2014,03,11,00,14,3.70
2014,03,11,00,15,3.70
2014,03,11,00,16,3.60
2014,03,11,00,17,3.60
2014,03,11,00,18,3.60
2014,03,11,00,19,3.60
2014,03,11,00,20,3.70
2014,03,11,00,21,3.60
2014,03,11,00,22,3.60
2014,03,11,00,23,3.60
2014,03,11,00,24,3.60
2014,03,11,00,25,3.60
2014,03,11,00,26,3.50
2014,03,11,00,27,3.60
2014,03,11,00,28,3.60
2014,03,11,00,29,3.50
2014,03,11,00,30,3.50
2014,03,11,00,31,3.40
2014,03,11,00,32,3.40
2014,03,11,00,33,3.30
2014,03,11,00,34,3.30
2014,03,11,00,35,3.20
2014,03,11,00,36,3.20
2014,03,11,00,37,3.20
2014,03,11,00,38,3.20
2014,03,11,00,39,3.20
2014,03,11,00,40,3.20
2014,03,11,00,41,3.20
2014,03,11,00,42,3.20
2014,03,11,00,43,3.30
2014,03,11,00,44,3.30
2014,03,11,00,45,3.30
2014,03,11,00,46,3.30
2014,03,11,00,47,3.30
2014,03,11,00,48,3.40
2014,03,11,00,49,3.40
2014,03,11,00,50,3.40
2014,03,11,00,51,3.40
2014,03,11,00,52,3.30
2014,03,11,00,53,3.30
2014,03,11,00,54,3.30
2014,03,11,00,55,3.30
2014,03,11,00,56,3.30
2014,03,11,00,57,3.20
2014,03,11,00,58,3.20
2014,03,11,00,59,3.20
2014,03,11,01,00,3.10
2014,03,11,01,01,3.10
2014,03,11,01,02,3.10
2014,03,11,01,03,3.10
2014,03,11,01,04,3.10
2014,03,11,01,05,3.00
2014,03,11,01,06,3.00
2014,03,11,01,07,3.00
2014,03,11,01,08,3.00
2014,03,11,01,09,3.00
2014,03,11,01,10,3.00
2014,03,11,01,11,3.00
2014,03,11,01,12,3.00
2014,03,11,01,13,2.90
2014,03,11,01,14,2.90
2014,03,11,01,15,2.90
2014,03,11,01,16,2.90
2014,03,11,01,17,2.80
2014,03,11,01,18,2.80
2014,03,11,01,19,2.80
2014,03,11,01,20,2.80
2014,03,11,01,21,2.80
2014,03,11,01,22,2.80
2014,03,11,01,23,2.70
2014,03,11,01,24,2.70
2014,03,11,01,25,2.70
2014,03,11,01,26,2.70
2014,03,11,01,27,2.60
2014,03,11,01,28,2.60
2014,03,11,01,29,2.60
2014,03,11,01,30,2.60
2014,03,11,01,31,2.60
2014,03,11,01,32,2.60
2014,03,11,01,33,2.60
2014,03,11,01,34,2.60
2014,03,11,01,35,2.60
2014,03,11,01,36,2.60
2014,03,11,01,37,2.60
2014,03,11,01,38,2.60
2014,03,11,01,39,2.70
2014,03,11,01,40,2.70
2014,03,11,01,41,2.70
2014,03,11,01,42,2.60
2014,03,11,01,43,2.60
2014,03,11,01,44,2.60
2014,03,11,01,45,2.60
2014,03,11,01,46,2.60
2014,03,11,01,47,2.70
2014,03,11,01,48,2.70
2014,03,11,01,49,2.80
2014,03,11,01,50,2.80
2014,03,11,01,51,2.90
2014,03,11,01,52,3.00
2014,03,11,01,53,3.10
2014,03,11,01,54,3.10
2014,03,11,01,55,3.20
2014,03,11,01,56,3.20
2014,03,11,01,57,3.20
2014,03,11,01,58,3.20
2014,03,11,01,59,3.20
2014,03,11,02,00,3.00
2014,03,11,02,01,3.00
2014,03,11,02,02,2.90
2014,03,11,02,03,2.90
2014,03,11,02,04,2.90
2014,03,11,02,05,2.80
2014,03,11,02,06,2.80
2014,03,11,02,07,2.80
2014,03,11,02,08,2.80
2014,03,11,02,09,2.80
2014,03,11,02,10,2.80
2014,03,11,02,11,2.90
2014,03,11,02,12,2.90
2014,03,11,02,13,2.90
2014,03,11,02,14,2.90
2014,03,11,02,15,2.90
2014,03,11,02,16,2.90
2014,03,11,02,17,2.90
2014,03,11,02,18,2.90
2014,03,11,02,19,2.90
2014,03,11,02,20,2.90
2014,03,11,02,21,2.90
2014,03,11,02,22,2.80
2014,03,11,02,23,2.80
2014,03,11,02,24,2.80
2014,03,11,02,25,2.70
2014,03,11,02,26,2.70
2014,03,11,02,27,2.70
2014,03,11,02,28,2.70
2014,03,11,02,29,2.70
2014,03,11,02,30,2.70
2014,03,11,02,31,2.70
2014,03,11,02,32,2.70
2014,03,11,02,33,2.70
2014,03,11,02,34,2.60
2014,03,11,02,35,2.60
2014,03,11,02,36,2.60
2014,03,11,02,37,2.60
2014,03,11,02,38,2.50
2014,03,11,02,39,2.50
2014,03,11,02,40,2.60
2014,03,11,02,41,2.60
2014,03,11,02,42,2.70
2014,03,11,02,43,2.70
2014,03,11,02,44,2.80
2014,03,11,02,45,2.80
2014,03,11,02,46,2.80
2014,03,11,02,47,2.70
2014,03,11,02,48,2.70
2014,03,11,02,49,2.60
2014,03,11,02,50,2.60
2014,03,11,02,51,2.60
2014,03,11,02,52,2.70
2014,03,11,02,53,2.70
2014,03,11,02,54,2.70
2014,03,11,02,55,2.70
2014,03,11,02,56,2.70
2014,03,11,02,57,2.70
2014,03,11,02,58,2.70
2014,03,11,02,59,2.70
2014,03,11,03,00,2.60
2014,03,11,03,01,2.60
2014,03,11,03,02,2.60
2014,03,11,03,03,2.50
2014,03,11,03,04,2.50
2014,03,11,03,05,2.60
2014,03,11,03,06,2.60
2014,03,11,03,07,2.70
2014,03,11,03,08,2.70
2014,03,11,03,09,2.70
2014,03,11,03,10,2.80
2014,03,11,03,11,2.80
2014,03,11,03,12,2.70
2014,03,11,03,13,2.70
2014,03,11,03,14,2.60
2014,03,11,03,15,2.50
2014,03,11,03,16,2.40
2014,03,11,03,17,2.30
2014,03,11,03,18,2.30
2014,03,11,03,19,2.30
2014,03,11,03,20,2.30
2014,03,11,03,21,2.30
2014,03,11,03,22,2.20
2014,03,11,03,23,2.20
2014,03,11,03,24,2.20
2014,03,11,03,25,2.20
2014,03,11,03,26,2.10
2014,03,11,03,27,2.10
2014,03,11,03,28,2.10
2014,03,11,03,29,2.10
2014,03,11,03,30,2.10
2014,03,11,03,31,2.10
2014,03,11,03,32,2.10
2014,03,11,03,33,2.00
2014,03,11,03,34,2.00
2014,03,11,03,35,2.00
2014,03,11,03,36,2.00
2014,03,11,03,37,1.90
2014,03,11,03,38,1.90
2014,03,11,03,39,1.90
2014,03,11,03,40,1.90
2014,03,11,03,41,1.90
2014,03,11,03,42,1.90
2014,03,11,03,43,1.90
2014,03,11,03,44,1.80
2014,03,11,03,45,1.80
2014,03,11,03,46,1.80
2014,03,11,03,47,1.80
2014,03,11,03,48,1.80
2014,03,11,03,49,1.80
2014,03,11,03,50,1.90
2014,03,11,03,51,1.90
2014,03,11,03,52,2.00
2014,03,11,03,53,2.10
2014,03,11,03,54,2.20
2014,03,11,03,55,2.30
2014,03,11,03,56,2.50
2014,03,11,03,57,2.50
2014,03,11,03,58,2.50
2014,03,11,03,59,2.50
2014,03,11,04,00,2.40
2014,03,11,04,01,2.30
2014,03,11,04,02,2.20
2014,03,11,04,03,2.10
2014,03,11,04,04,2.00
2014,03,11,04,05,1.90
2014,03,11,04,06,1.90
2014,03,11,04,07,1.80
2014,03,11,04,08,1.80
2014,03,11,04,09,1.70
2014,03,11,04,10,1.70
2014,03,11,04,11,1.70
2014,03,11,04,12,1.70
2014,03,11,04,13,1.70
2014,03,11,04,14,1.80
2014,03,11,04,15,1.80
2014,03,11,04,16,1.90
2014,03,11,04,17,2.00
2014,03,11,04,18,2.10
2014,03,11,04,19,2.20
2014,03,11,04,20,2.30
2014,03,11,04,21,2.40
2014,03,11,04,22,2.40
2014,03,11,04,23,2.50
2014,03,11,04,24,2.50
2014,03,11,04,25,2.50
2014,03,11,04,26,2.50
2014,03,11,04,27,2.50
2014,03,11,04,28,2.40
2014,03,11,04,29,2.40
2014,03,11,04,30,2.40
2014,03,11,04,31,2.30
2014,03,11,04,32,2.30
2014,03,11,04,33,2.20
2014,03,11,04,34,2.20
2014,03,11,04,35,2.20
2014,03,11,04,36,2.20
2014,03,11,04,37,2.20
2014,03,11,04,38,2.20
2014,03,11,04,39,2.20
2014,03,11,04,40,2.20
2014,03,11,04,41,2.20
2014,03,11,04,42,2.20
2014,03,11,04,43,2.20
2014,03,11,04,44,2.20
2014,03,11,04,45,2.30
2014,03,11,04,46,2.30
2014,03,11,04,47,2.30
2014,03,11,04,48,2.30
2014,03,11,04,49,2.30
2014,03,11,04,50,2.30
2014,03,11,04,51,2.30
2014,03,11,04,52,2.20
2014,03,11,04,53,2.20
2014,03,11,04,54,2.20
2014,03,11,04,55,2.30
2014,03,11,04,56,2.30
2014,03,11,04,57,2.40
2014,03,11,04,58,2.40
2014,03,11,04,59,2.40
2014,03,11,05,00,2.40
2014,03,11,05,01,2.40
2014,03,11,05,02,2.40
2014,03,11,05,03,2.40
2014,03,11,05,04,2.40
2014,03,11,05,05,2.40
2014,03,11,05,06,2.40
2014,03,11,05,07,2.30
2014,03,11,05,08,2.30
2014,03,11,05,09,2.30
2014,03,11,05,10,2.30
2014,03,11,05,11,2.30
2014,03,11,05,12,2.30
2014,03,11,05,13,2.20
2014,03,11,05,14,2.20
2014,03,11,05,15,2.20
2014,03,11,05,16,2.20
2014,03,11,05,17,2.20
2014,03,11,05,18,2.20
2014,03,11,05,19,2.10
2014,03,11,05,20,2.10
2014,03,11,05,21,2.10
2014,03,11,05,22,2.10
2014,03,11,05,23,2.10
2014,03,11,05,24,2.10
2014,03,11,05,25,2.10
2014,03,11,05,26,2.10
2014,03,11,05,27,2.10
2014,03,11,05,28,2.10
2014,03,11,05,29,2.00
2014,03,11,05,30,2.00
2014,03,11,05,31,1.90
2014,03,11,05,32,1.90
2014,03,11,05,33,1.90
2014,03,11,05,34,1.90
2014,03,11,05,35,1.90
2014,03,11,05,36,1.90
2014,03,11,05,37,1.90
2014,03,11,05,38,1.90
2014,03,11,05,39,1.90
2014,03,11,05,40,1.90
2014,03,11,05,41,2.00
2014,03,11,05,42,1.90
2014,03,11,05,43,1.90
2014,03,11,05,44,1.90
2014,03,11,05,45,1.80
2014,03,11,05,46,1.80
2014,03,11,05,47,1.80
2014,03,11,05,48,1.80
2014,03,11,05,49,1.70
2014,03,11,05,50,1.70
2014,03,11,05,51,1.70
2014,03,11,05,52,1.70
2014,03,11,05,53,1.60
2014,03,11,05,54,1.60
2014,03,11,05,55,1.60
2014,03,11,05,56,1.60
2014,03,11,05,57,1.60
2014,03,11,05,58,1.50
2014,03,11,05,59,1.50
2014,03,11,06,00,1.50
2014,03,11,06,01,1.50
2014,03,11,06,02,1.40
2014,03,11,06,03,1.40
2014,03,11,06,04,1.50
2014,03,11,06,05,1.50
2014,03,11,06,06,1.50
2014,03,11,06,07,1.50
2014,03,11,06,08,1.50
2014,03,11,06,09,1.60
2014,03,11,06,10,1.50
2014,03,11,06,11,1.50
2014,03,11,06,12,1.50
2014,03,11,06,13,1.60
2014,03,11,06,14,1.60
2014,03,11,06,15,1.60
2014,03,11,06,16,1.60
2014,03,11,06,17,1.50
2014,03,11,06,18,1.50
2014,03,11,06,19,1.50
2014,03,11,06,20,1.50
2014,03,11,06,21,1.50
2014,03,11,06,22,1.50
2014,03,11,06,23,1.50
2014,03,11,06,24,1.60
2014,03,11,06,25,1.60
2014,03,11,06,26,1.60
2014,03,11,06,27,1.60
2014,03,11,06,28,1.60
2014,03,11,06,29,1.60
2014,03,11,06,30,1.60
2014,03,11,06,31,1.50
2014,03,11,06,32,1.50
2014,03,11,06,33,1.50
2014,03,11,06,34,1.60
2014,03,11,06,35,1.60
2014,03,11,06,36,1.60
2014,03,11,06,37,1.70
2014,03,11,06,38,1.60
2014,03,11,06,39,1.50
2014,03,11,06,40,1.50
2014,03,11,06,41,1.40
2014,03,11,06,42,1.30
2014,03,11,06,43,1.30
2014,03,11,06,44,1.30
2014,03,11,06,45,1.30
2014,03,11,06,46,1.30
2014,03,11,06,47,1.30
2014,03,11,06,48,1.30
2014,03,11,06,49,1.30
2014,03,11,06,50,1.30
2014,03,11,06,51,1.30
2014,03,11,06,52,1.30
2014,03,11,06,53,1.30
2014,03,11,06,54,1.40
2014,03,11,06,55,1.40
2014,03,11,06,56,1.40
2014,03,11,06,57,1.40
2014,03,11,06,58,1.40
2014,03,11,06,59,1.40
2014,03,11,07,00,1.40
2014,03,11,07,01,1.50
2014,03,11,07,02,1.50
2014,03,11,07,03,1.50
2014,03,11,07,04,1.60
2014,03,11,07,05,1.60
2014,03,11,07,06,1.60
2014,03,11,07,07,1.60
2014,03,11,07,08,1.60
2014,03,11,07,09,1.60
2014,03,11,07,10,1.60
2014,03,11,07,11,1.50
2014,03,11,07,12,1.50
2014,03,11,07,13,1.40
2014,03,11,07,14,1.40
2014,03,11,07,15,1.40
2014,03,11,07,16,1.40
2014,03,11,07,17,1.40
2014,03,11,07,18,1.40
2014,03,11,07,19,1.40
2014,03,11,07,20,1.40
2014,03,11,07,21,1.40
2014,03,11,07,22,1.40
2014,03,11,07,23,1.30
2014,03,11,07,24,1.30
2014,03,11,07,25,1.20
2014,03,11,07,26,1.20
2014,03,11,07,27,1.30
2014,03,11,07,28,1.30
2014,03,11,07,29,1.40
2014,03,11,07,30,1.40
2014,03,11,07,31,1.40
2014,03,11,07,32,1.50
2014,03,11,07,33,1.60
2014,03,11,07,34,1.70
2014,03,11,07,35,1.80
2014,03,11,07,36,1.80
2014,03,11,07,37,1.80
2014,03,11,07,38,1.80
2014,03,11,07,39,1.80
2014,03,11,07,40,1.80
2014,03,11,07,41,1.80
2014,03,11,07,42,1.70
2014,03,11,07,43,1.70
2014,03,11,07,44,1.70
2014,03,11,07,45,1.70
2014,03,11,07,46,1.70
2014,03,11,07,47,1.70
2014,03,11,07,48,1.70
2014,03,11,07,49,1.60
2014,03,11,07,50,1.70
2014,03,11,07,51,1.70
2014,03,11,07,52,1.70
2014,03,11,07,53,1.60
2014,03,11,07,54,1.50
2014,03,11,07,55,1.40
2014,03,11,07,56,1.40
2014,03,11,07,57,1.50
2014,03,11,07,58,1.50
2014,03,11,07,59,1.60
2014,03,11,08,00,1.60
2014,03,11,08,01,1.60
2014,03,11,08,02,1.60
2014,03,11,08,03,1.60
2014,03,11,08,04,1.60
2014,03,11,08,05,1.50
2014,03,11,08,06,1.50
2014,03,11,08,07,1.40
2014,03,11,08,08,1.50
2014,03,11,08,09,1.50
2014,03,11,08,10,1.50
2014,03,11,08,11,1.50
2014,03,11,08,12,1.50
2014,03,11,08,13,1.50
2014,03,11,08,14,1.50
2014,03,11,08,15,1.50
2014,03,11,08,16,1.50
2014,03,11,08,17,1.60
2014,03,11,08,18,1.60
2014,03,11,08,19,1.70
2014,03,11,08,20,1.80
2014,03,11,08,21,1.80
2014,03,11,08,22,1.80
2014,03,11,08,23,1.90
2014,03,11,08,24,1.90
2014,03,11,08,25,1.90
2014,03,11,08,26,2.00
2014,03,11,08,27,2.00
2014,03,11,08,28,2.00
2014,03,11,08,29,2.10
2014,03,11,08,30,2.10
2014,03,11,08,31,2.10
2014,03,11,08,32,2.10
2014,03,11,08,33,2.10
2014,03,11,08,34,2.10
2014,03,11,08,35,2.10
2014,03,11,08,36,2.10
2014,03,11,08,37,2.10
2014,03,11,08,38,2.20
2014,03,11,08,39,2.20
2014,03,11,08,40,2.30
2014,03,11,08,41,2.30
2014,03,11,08,42,2.30
2014,03,11,08,43,2.40
2014,03,11,08,44,2.50
2014,03,11,08,45,2.50
2014,03,11,08,46,2.60
2014,03,11,08,47,2.70
2014,03,11,08,48,2.80
2014,03,11,08,49,3.00
2014,03,11,08,50,3.10
2014,03,11,08,51,3.30
2014,03,11,08,52,3.50
2014,03,11,08,53,3.60
2014,03,11,08,54,3.60
2014,03,11,08,55,3.70
2014,03,11,08,56,3.80
2014,03,11,08,57,3.80
2014,03,11,08,58,3.90
2014,03,11,08,59,3.90
2014,03,11,09,00,3.90
2014,03,11,09,01,3.90
2014,03,11,09,02,3.90
2014,03,11,09,03,3.90
2014,03,11,09,04,3.90
2014,03,11,09,05,3.90
2014,03,11,09,06,3.90
2014,03,11,09,07,3.90
2014,03,11,09,08,3.90
2014,03,11,09,09,3.90
2014,03,11,09,10,3.90
2014,03,11,09,11,3.90
2014,03,11,09,12,3.90
2014,03,11,09,13,3.90
2014,03,11,09,14,3.90
2014,03,11,09,15,3.90
2014,03,11,09,16,3.90
2014,03,11,09,17,3.90
2014,03,11,09,18,4.00
2014,03,11,09,19,4.00
2014,03,11,09,20,4.00
2014,03,11,09,21,4.00
2014,03,11,09,22,4.10
2014,03,11,09,23,4.10
2014,03,11,09,24,4.10
2014,03,11,09,25,4.10
2014,03,11,09,26,4.10
2014,03,11,09,27,4.20
2014,03,11,09,28,4.20
2014,03,11,09,29,4.20
2014,03,11,09,30,4.20
2014,03,11,09,31,4.20
2014,03,11,09,32,4.30
2014,03,11,09,33,4.30
2014,03,11,09,34,4.30
2014,03,11,09,35,4.30
2014,03,11,09,36,4.40
2014,03,11,09,37,4.40
2014,03,11,09,38,4.40
2014,03,11,09,39,4.40
2014,03,11,09,40,4.50
2014,03,11,09,41,4.50
2014,03,11,09,42,4.50
2014,03,11,09,43,4.60
2014,03,11,09,44,4.60
2014,03,11,09,45,4.70
2014,03,11,09,46,4.70
2014,03,11,09,47,4.70
2014,03,11,09,48,4.80
2014,03,11,09,49,4.90
2014,03,11,09,50,5.00
2014,03,11,09,51,5.20
2014,03,11,09,52,5.30
2014,03,11,09,53,5.40
2014,03,11,09,54,5.60
2014,03,11,09,55,5.70
2014,03,11,09,56,5.80
2014,03,11,09,57,5.90
2014,03,11,09,58,6.10
2014,03,11,09,59,6.20
2014,03,11,10,00,6.30
2014,03,11,10,01,6.40
2014,03,11,10,02,6.50
2014,03,11,10,03,6.60
2014,03,11,10,04,6.70
2014,03,11,10,05,6.80
2014,03,11,10,06,6.90
2014,03,11,10,07,6.90
2014,03,11,10,08,6.90
2014,03,11,10,09,6.90
2014,03,11,10,10,7.00
2014,03,11,10,11,7.00
2014,03,11,10,12,7.00
2014,03,11,10,13,6.90
2014,03,11,10,14,6.90
2014,03,11,10,15,6.90
2014,03,11,10,16,7.00
2014,03,11,10,17,7.00
2014,03,11,10,18,7.00
2014,03,11,10,19,7.00
2014,03,11,10,20,7.00
2014,03,11,10,21,7.00
2014,03,11,10,22,7.00
2014,03,11,10,23,7.00
2014,03,11,10,24,7.00
2014,03,11,10,25,7.00
2014,03,11,10,26,7.10
2014,03,11,10,27,7.10
2014,03,11,10,28,7.10
2014,03,11,10,29,7.10
2014,03,11,10,30,7.10
2014,03,11,10,31,7.10
2014,03,11,10,32,7.10
2014,03,11,10,33,7.10
2014,03,11,10,34,7.20
2014,03,11,10,35,7.20
2014,03,11,10,36,7.20
2014,03,11,10,37,7.20
2014,03,11,10,38,7.20
2014,03,11,10,39,7.20
2014,03,11,10,40,7.20
2014,03,11,10,41,7.20
2014,03,11,10,42,7.20
2014,03,11,10,43,7.20
2014,03,11,10,44,7.20
2014,03,11,10,45,7.20
2014,03,11,10,46,7.20
2014,03,11,10,47,7.20
2014,03,11,10,48,7.20
2014,03,11,10,49,7.20
2014,03,11,10,50,7.20
2014,03,11,10,51,7.30
2014,03,11,10,52,7.30
2014,03,11,10,53,7.40
2014,03,11,10,54,7.50
2014,03,11,10,55,7.60
2014,03,11,10,56,7.60
2014,03,11,10,57,7.60
2014,03,11,10,58,7.60
2014,03,11,10,59,7.60
2014,03,11,11,00,7.60
2014,03,11,11,01,7.60
2014,03,11,11,02,7.60
2014,03,11,11,03,7.60
2014,03,11,11,04,7.70
2014,03,11,11,05,7.80
2014,03,11,11,06,7.90
2014,03,11,11,07,8.00
2014,03,11,11,08,8.00
2014,03,11,11,09,8.10
2014,03,11,11,10,8.10
2014,03,11,11,11,8.20
2014,03,11,11,12,8.20
2014,03,11,11,13,8.10
2014,03,11,11,14,8.10
2014,03,11,11,15,8.20
2014,03,11,11,16,8.30
2014,03,11,11,17,8.40
2014,03,11,11,18,8.40
2014,03,11,11,19,8.40
2014,03,11,11,20,8.40
2014,03,11,11,21,8.40
2014,03,11,11,22,8.40
2014,03,11,11,23,8.40
2014,03,11,11,24,8.40
2014,03,11,11,25,8.40
2014,03,11,11,26,8.50
2014,03,11,11,27,8.50
2014,03,11,11,28,8.60
2014,03,11,11,29,8.60
2014,03,11,11,30,8.60
2014,03,11,11,31,8.60
2014,03,11,11,32,8.60
2014,03,11,11,33,8.50
2014,03,11,11,34,8.50
2014,03,11,11,35,8.40
2014,03,11,11,36,8.40
2014,03,11,11,37,8.40
2014,03,11,11,38,8.40
2014,03,11,11,39,8.40
2014,03,11,11,40,8.40
2014,03,11,11,41,8.40
2014,03,11,11,42,8.40
2014,03,11,11,43,8.50
2014,03,11,11,44,8.50
2014,03,11,11,45,8.70
2014,03,11,11,46,8.80
2014,03,11,11,47,9.00
2014,03,11,11,48,9.10
2014,03,11,11,49,9.20
2014,03,11,11,50,9.30
2014,03,11,11,51,9.30
2014,03,11,11,52,9.50
2014,03,11,11,53,9.60
2014,03,11,11,54,9.80
2014,03,11,11,55,9.90
2014,03,11,11,56,10.00
2014,03,11,11,57,10.10
2014,03,11,11,58,10.10
2014,03,11,11,59,10.20
2014,03,11,12,00,10.30
2014,03,11,12,01,10.30
2014,03,11,12,02,10.30
2014,03,11,12,03,10.20
2014,03,11,12,04,10.20
2014,03,11,12,05,10.30
2014,03,11,12,06,10.30
2014,03,11,12,07,10.20
2014,03,11,12,08,10.20
2014,03,11,12,09,10.20
2014,03,11,12,10,10.20
2014,03,11,12,11,10.10
2014,03,11,12,12,10.00
2014,03,11,12,13,9.90
2014,03,11,12,14,9.80
2014,03,11,12,15,9.70
2014,03,11,12,16,9.70
2014,03,11,12,17,9.70
2014,03,11,12,18,9.60
2014,03,11,12,19,9.60
2014,03,11,12,20,9.70
2014,03,11,12,21,9.70
2014,03,11,12,22,9.70
2014,03,11,12,23,9.70
2014,03,11,12,24,9.70
2014,03,11,12,25,9.70
2014,03,11,12,26,9.70
2014,03,11,12,27,9.70
2014,03,11,12,28,9.70
2014,03,11,12,29,9.80
2014,03,11,12,30,9.80
2014,03,11,12,31,9.80
2014,03,11,12,32,9.90
2014,03,11,12,33,9.80
2014,03,11,12,34,9.80
2014,03,11,12,35,9.80
2014,03,11,12,36,9.80
2014,03,11,12,37,9.80
2014,03,11,12,38,9.80
2014,03,11,12,39,9.80
2014,03,11,12,40,9.80
2014,03,11,12,41,9.80
2014,03,11,12,42,9.90
2014,03,11,12,43,10.00
2014,03,11,12,44,10.10
2014,03,11,12,45,10.10
2014,03,11,12,46,10.10
2014,03,11,12,47,10.00
2014,03,11,12,48,9.90
2014,03,11,12,49,9.70
2014,03,11,12,50,9.80
2014,03,11,12,51,9.80
2014,03,11,12,52,9.90
2014,03,11,12,53,9.90
2014,03,11,12,54,9.90
2014,03,11,12,55,9.80
2014,03,11,12,56,9.80
2014,03,11,12,57,9.80
2014,03,11,12,58,9.80
2014,03,11,12,59,9.90
2014,03,11,13,00,9.90
2014,03,11,13,01,9.90
2014,03,11,13,02,9.90
2014,03,11,13,03,9.80
2014,03,11,13,04,9.80
2014,03,11,13,05,9.80
2014,03,11,13,06,9.80
2014,03,11,13,07,9.80
2014,03,11,13,08,9.90
2014,03,11,13,09,9.90
2014,03,11,13,10,9.90
2014,03,11,13,11,9.90
2014,03,11,13,12,9.80
2014,03,11,13,13,9.90
2014,03,11,13,14,10.00
2014,03,11,13,15,10.10
2014,03,11,13,16,10.20
2014,03,11,13,17,10.30
2014,03,11,13,18,10.20
2014,03,11,13,19,10.20
2014,03,11,13,20,10.20
2014,03,11,13,21,10.20
2014,03,11,13,22,10.20
2014,03,11,13,23,10.20
2014,03,11,13,24,10.10
2014,03,11,13,25,10.20
2014,03,11,13,26,10.30
2014,03,11,13,27,10.30
2014,03,11,13,28,10.40
2014,03,11,13,29,10.40
2014,03,11,13,30,10.30
2014,03,11,13,31,10.20
2014,03,11,13,32,10.20
2014,03,11,13,33,10.10
2014,03,11,13,34,10.10
2014,03,11,13,35,10.10
2014,03,11,13,36,10.20
2014,03,11,13,37,10.20
2014,03,11,13,38,10.30
2014,03,11,13,39,10.30
2014,03,11,13,40,10.30
2014,03,11,13,41,10.40
2014,03,11,13,42,10.40
2014,03,11,13,43,10.40
2014,03,11,13,44,10.40
2014,03,11,13,45,10.20
2014,03,11,13,46,10.20
2014,03,11,13,47,10.40
2014,03,11,13,48,10.50
2014,03,11,13,49,10.50
2014,03,11,13,50,10.50
2014,03,11,13,51,10.40
2014,03,11,13,52,10.40
2014,03,11,13,53,10.30
2014,03,11,13,54,10.30
2014,03,11,13,55,10.30
2014,03,11,13,56,10.30
2014,03,11,13,57,10.30
2014,03,11,13,58,10.20
2014,03,11,13,59,10.10
2014,03,11,14,00,10.10
2014,03,11,14,01,10.10
2014,03,11,14,02,10.20
2014,03,11,14,03,10.20
2014,03,11,14,04,10.30
2014,03,11,14,05,10.30
2014,03,11,14,06,10.40
2014,03,11,14,07,10.50
2014,03,11,14,08,10.60
2014,03,11,14,09,10.50
2014,03,11,14,10,10.60
2014,03,11,14,11,10.70
2014,03,11,14,12,10.80
2014,03,11,14,13,10.80
2014,03,11,14,14,10.80
2014,03,11,14,15,10.80
2014,03,11,14,16,10.70
2014,03,11,14,17,10.70
2014,03,11,14,18,10.70
2014,03,11,14,19,10.70
2014,03,11,14,20,10.70
2014,03,11,14,21,10.80
2014,03,11,14,22,10.90
2014,03,11,14,23,10.90
2014,03,11,14,24,10.90
2014,03,11,14,25,11.00
2014,03,11,14,26,10.90
2014,03,11,14,27,10.80
2014,03,11,14,28,10.80
2014,03,11,14,29,10.80
2014,03,11,14,30,10.90
2014,03,11,14,31,10.90
2014,03,11,14,32,10.90
2014,03,11,14,33,10.90
2014,03,11,14,34,11.00
2014,03,11,14,35,11.00
2014,03,11,14,36,11.10
2014,03,11,14,37,11.30
2014,03,11,14,38,11.40
2014,03,11,14,39,11.30
2014,03,11,14,40,11.20
2014,03,11,14,41,11.10
2014,03,11,14,42,11.10
2014,03,11,14,43,11.10
2014,03,11,14,44,11.10
2014,03,11,14,45,11.10
2014,03,11,14,46,11.10
2014,03,11,14,47,11.20
2014,03,11,14,48,11.20
2014,03,11,14,49,11.20
2014,03,11,14,50,11.20
2014,03,11,14,51,11.10
2014,03,11,14,52,11.10
2014,03,11,14,53,11.10
2014,03,11,14,54,11.00
2014,03,11,14,55,11.00
2014,03,11,14,56,11.10
2014,03,11,14,57,11.10
2014,03,11,14,58,11.10
2014,03,11,14,59,11.10
2014,03,11,15,00,11.10
2014,03,11,15,01,11.20
2014,03,11,15,02,11.30
2014,03,11,15,03,11.30
2014,03,11,15,04,11.30
2014,03,11,15,05,11.30
2014,03,11,15,06,11.20
2014,03,11,15,07,11.20
2014,03,11,15,08,11.20
2014,03,11,15,09,11.20
2014,03,11,15,10,11.30
2014,03,11,15,11,11.30
2014,03,11,15,12,11.40
2014,03,11,15,13,11.40
2014,03,11,15,14,11.40
2014,03,11,15,15,11.40
2014,03,11,15,16,11.30
2014,03,11,15,17,11.10
2014,03,11,15,18,11.10
2014,03,11,15,19,11.20
2014,03,11,15,20,11.20
2014,03,11,15,21,11.30
2014,03,11,15,22,11.40
2014,03,11,15,23,11.40
2014,03,11,15,24,11.40
2014,03,11,15,25,11.40
2014,03,11,15,26,11.40
2014,03,11,15,27,11.30
2014,03,11,15,28,11.30
2014,03,11,15,29,11.30
2014,03,11,15,30,11.30
2014,03,11,15,31,11.30
2014,03,11,15,32,11.40
2014,03,11,15,33,11.50
2014,03,11,15,34,11.60
2014,03,11,15,35,11.70
2014,03,11,15,36,11.70
2014,03,11,15,37,11.70
2014,03,11,15,38,11.70
2014,03,11,15,39,11.80
2014,03,11,15,40,11.90
2014,03,11,15,41,11.90
2014,03,11,15,42,11.80
2014,03,11,15,43,11.70
2014,03,11,15,44,11.60
2014,03,11,15,45,11.50
2014,03,11,15,46,11.60
2014,03,11,15,47,11.70
2014,03,11,15,48,11.80
2014,03,11,15,49,11.80
2014,03,11,15,50,11.80
2014,03,11,15,51,11.80
2014,03,11,15,52,11.80
2014,03,11,15,53,11.90
2014,03,11,15,54,11.90
2014,03,11,15,55,11.90
2014,03,11,15,56,11.80
2014,03,11,15,57,11.70
2014,03,11,15,58,11.60
2014,03,11,15,59,11.60
2014,03,11,16,00,11.60
2014,03,11,16,01,11.70
2014,03,11,16,02,11.70
2014,03,11,16,03,11.70
2014,03,11,16,04,11.70
2014,03,11,16,05,11.60
2014,03,11,16,06,11.60
2014,03,11,16,07,11.60
2014,03,11,16,08,11.60
2014,03,11,16,09,11.70
2014,03,11,16,10,11.70
2014,03,11,16,11,11.80
2014,03,11,16,12,11.80
2014,03,11,16,13,11.70
2014,03,11,16,14,11.70
2014,03,11,16,15,11.70
2014,03,11,16,16,11.70
2014,03,11,16,17,11.70
2014,03,11,16,18,11.70
2014,03,11,16,19,11.60
2014,03,11,16,20,11.60
2014,03,11,16,21,11.60
2014,03,11,16,22,11.70
2014,03,11,16,23,11.70
2014,03,11,16,24,11.60
2014,03,11,16,25,11.60
2014,03,11,16,26,11.60
2014,03,11,16,27,11.60
2014,03,11,16,28,11.60
2014,03,11,16,29,11.60
2014,03,11,16,30,11.60
2014,03,11,16,31,11.70
2014,03,11,16,32,11.70
2014,03,11,16,33,11.70
2014,03,11,16,34,11.70
2014,03,11,16,35,11.70
2014,03,11,16,36,11.70
2014,03,11,16,37,11.60
2014,03,11,16,38,11.60
2014,03,11,16,39,11.60
2014,03,11,16,40,11.60
2014,03,11,16,41,11.60
2014,03,11,16,42,11.60
2014,03,11,16,43,11.60
2014,03,11,16,44,11.60
2014,03,11,16,45,11.60
2014,03,11,16,46,11.60
2014,03,11,16,47,11.60
2014,03,11,16,48,11.60
2014,03,11,16,49,11.60
2014,03,11,16,50,11.60
2014,03,11,16,51,11.50
2014,03,11,16,52,11.50
2014,03,11,16,53,11.50
2014,03,11,16,54,11.50
2014,03,11,16,55,11.50
2014,03,11,16,56,11.40
2014,03,11,16,57,11.40
2014,03,11,16,58,11.40
2014,03,11,16,59,11.40
2014,03,11,17,00,11.30
2014,03,11,17,01,11.40
2014,03,11,17,02,11.40
2014,03,11,17,03,11.40
2014,03,11,17,04,11.40
2014,03,11,17,05,11.40
2014,03,11,17,06,11.40
2014,03,11,17,07,11.40
2014,03,11,17,08,11.50
2014,03,11,17,09,11.60
2014,03,11,17,10,11.60
2014,03,11,17,11,11.60
2014,03,11,17,12,11.60
2014,03,11,17,13,11.50
2014,03,11,17,14,11.50
2014,03,11,17,15,11.50
2014,03,11,17,16,11.50
2014,03,11,17,17,11.40
2014,03,11,17,18,11.40
2014,03,11,17,19,11.40
2014,03,11,17,20,11.40
2014,03,11,17,21,11.40
2014,03,11,17,22,11.40
2014,03,11,17,23,11.40
2014,03,11,17,24,11.50
2014,03,11,17,25,11.50
2014,03,11,17,26,11.40
2014,03,11,17,27,11.40
2014,03,11,17,28,11.30
2014,03,11,17,29,11.30
2014,03,11,17,30,11.30
2014,03,11,17,31,11.30
2014,03,11,17,32,11.30
2014,03,11,17,33,11.30
2014,03,11,17,34,11.30
2014,03,11,17,35,11.30
2014,03,11,17,36,11.30
2014,03,11,17,37,11.20
2014,03,11,17,38,11.20
2014,03,11,17,39,11.20
2014,03,11,17,40,11.20
2014,03,11,17,41,11.10
2014,03,11,17,42,11.10
2014,03,11,17,43,11.10
2014,03,11,17,44,11.10
2014,03,11,17,45,11.10
2014,03,11,17,46,11.10
2014,03,11,17,47,11.10
2014,03,11,17,48,11.10
2014,03,11,17,49,11.10
2014,03,11,17,50,11.10
2014,03,11,17,51,11.20
2014,03,11,17,52,11.20
2014,03,11,17,53,11.20